DW3201 Weather Reports


time (UTC)temp
C
wind
direction
speed
KPH
gust
KPH
rain 1hr
cm
rain 24hr
cm
rain mn
cm
humidity
%
barometer
mb
20260906090104 17 0 0.0 0.0 0.00 0.00 0.00 95 1018.0
20260906084613 17 0 0.0 0.0 0.00 0.00 0.00 95 1018.0
20260906083104 17 0 0.0 0.0 0.00 0.00 0.00 95 1017.9
20260906081605 17 0 0.0 0.0 0.00 0.00 0.00 95 1017.7
20260906080105 17 0 0.0 0.0 0.00 0.00 0.00 95 1017.8
20260906074602 17 0 0.0 0.0 0.00 0.00 0.00 95 1017.8
20260906073103 17 0 0.0 0.0 0.00 0.00 0.00 95 1017.8
20260906071559 17 0 0.0 1.6 0.00 0.00 0.00 95 1017.7
20260906070058 17 0 0.0 0.0 0.00 0.00 0.00 94 1017.8
20260906064600 17 0 0.0 0.0 0.00 0.00 0.00 94 1018.0
20260906063103 17 0 0.0 1.6 0.00 0.00 0.00 94 1018.0
20260906061600 17 0 0.0 0.0 0.00 0.00 0.00 94 1018.0
20260906060136 17 0 0.0 1.6 0.00 0.00 0.00 94 1017.9
20260906054612 17 0 0.0 1.6 0.00 0.00 0.00 93 1017.9
20260906053058 17 0 0.0 0.0 0.00 0.00 0.00 92 1017.9
20260906051602 18 0 0.0 1.6 0.00 0.00 0.00 91 1017.8
20260906050105 18 0 0.0 3.2 0.00 0.00 0.00 91 1017.7
20260906044606 18 0 0.0 4.8 0.00 0.00 0.00 89 1017.8
20260906043102 18 68 0.0 1.6 0.00 0.00 0.00 89 1017.5
20260906041605 18 79 0.0 3.2 0.00 0.00 0.00 88 1017.3
20260906040105 18 75 1.6 4.8 0.00 0.00 0.00 88 1017.2
20260906034607 19 45 3.2 9.7 0.00 0.00 0.00 89 1017.5
20260906033101 19 41 4.8 9.7 0.00 0.00 0.00 90 1017.3
20260906031603 20 73 3.2 9.7 0.00 0.00 0.00 91 1017.2
20260906030101 20 47 3.2 11.3 0.00 0.00 0.00 92 1017.1
20260906024613 20 45 3.2 4.8 0.00 0.00 0.00 92 1017.0
20260906023058 20 49 0.0 3.2 0.00 0.00 0.00 91 1016.9
20260906021603 20 88 0.0 3.2 0.00 0.00 0.00 91 1016.7
20260906020109 20 50 3.2 11.3 0.00 0.00 0.00 91 1016.7
20260906014607 20 37 4.8 11.3 0.00 0.00 0.00 91 1016.7
20260906013108 20 41 6.4 9.7 0.00 0.00 0.00 90 1016.8
20260906011608 20 49 1.6 6.4 0.00 0.00 0.00 90 1016.8
20260906010143 20 74 3.2 9.7 0.00 0.00 0.00 90 1016.8
20260906004617 21 84 1.6 8.0 0.00 0.00 0.00 89 1016.8
20260906003102 21 41 4.8 8.0 0.00 0.00 0.00 88 1016.7
20260906001606 21 79 8.0 20.9 0.00 0.00 0.00 87 1016.8
20260906000100 22 36 11.3 19.3 0.00 0.00 0.00 86 1016.4
20260905234556 22 90 11.3 20.9 0.00 0.00 0.00 86 1016.4
20260905233103 22 50 11.3 22.5 0.00 0.00 0.00 85 1016.3
20260905231607 22 69 6.4 17.7 0.00 0.00 0.00 85 1016.6
20260905224603 23 92 4.8 12.9 0.00 0.00 0.00 80 1016.2
20260905223100 23 50 4.8 14.5 0.00 0.00 0.00 80 1016.1
20260905221600 23 75 8.0 16.1 0.00 0.00 0.00 80 1016.0
20260905220103 24 68 8.0 24.1 0.00 0.00 0.00 78 1015.9
20260905214609 24 6 8.0 20.9 0.00 0.00 0.00 77 1015.7
20260905213106 24 37 9.7 20.9 0.00 0.00 0.00 79 1015.5
20260905211612 25 92 9.7 27.4 0.00 0.00 0.00 80 1015.3
20260905210120 25 58 6.4 17.7 0.00 0.00 0.00 80 1015.2
20260905204601 25 89 9.7 22.5 0.00 0.00 0.00 79 1015.3
20260905203104 25 115 11.3 20.9 0.00 0.00 0.00 80 1015.3
20260905201604 26 53 11.3 19.3 0.00 0.00 0.00 74 1015.3
20260905200127 26 36 4.8 17.7 0.00 0.00 0.00 71 1015.3
20260905194601 26 0 3.2 8.0 0.00 0.00 0.00 72 1015.4
20260905193108 26 61 6.4 19.3 0.00 0.00 0.00 71 1015.4
20260905191602 26 105 4.8 17.7 0.00 0.00 0.00 72 1015.5
20260905190104 26 79 4.8 11.3 0.00 0.00 0.00 74 1015.5
20260905184609 26 25 1.6 8.0 0.00 0.00 0.00 75 1015.5
20260905183108 26 73 6.4 12.9 0.00 0.00 0.00 77 1015.6
20260905181602 26 44 4.8 11.3 0.00 0.00 0.00 77 1015.6
20260905174606 25 0 0.0 1.6 0.00 0.00 0.00 82 1015.9
20260905173104 24 58 3.2 4.8 0.00 0.00 0.00 83 1016.1
20260905171603 23 82 0.0 4.8 0.00 0.00 0.00 84 1016.1
20260905170101 23 46 1.6 6.4 0.00 0.00 0.00 85 1016.0
20260905164602 23 46 3.2 6.4 0.00 0.00 0.00 85 1016.1
20260905163058 23 94 3.2 8.0 0.00 0.00 0.00 85 1016.1
20260905161604 23 50 0.0 3.2 0.00 0.00 0.00 86 1016.1
20260905160100 23 0 0.0 9.7 0.00 0.00 0.00 87 1016.2
20260905154605 22 82 1.6 8.0 0.00 0.48 0.00 90 1016.1
20260905153105 22 90 3.2 12.9 0.00 0.48 0.00 90 1016.0
20260905151633 22 59 6.4 16.1 0.00 0.48 0.00 91 1016.0
20260905150104 22 105 3.2 9.7 0.00 0.48 0.00 91 1015.7
20260905144559 22 44 3.2 8.0 0.00 0.48 0.00 91 1015.5
20260905143105 22 41 3.2 9.7 0.00 0.48 0.00 91 1015.4
20260905141602 22 77 3.2 11.3 0.00 0.48 0.00 91 1015.1
20260905140058 22 72 11.3 19.3 0.00 0.48 0.00 92 1015.0
20260905134600 22 79 4.8 11.3 0.00 0.48 0.00 93 1014.9
20260905133056 21 60 1.6 9.7 0.00 0.48 0.00 94 1015.1
20260905131604 21 44 3.2 9.7 0.00 0.48 0.00 95 1015.2
20260905130059 21 86 1.6 4.8 0.00 0.48 0.00 95 1015.6
20260905124601 21 78 1.6 6.4 0.00 0.48 0.00 95 1015.0
20260905123114 21 65 3.2 9.7 0.00 0.48 0.00 96 1014.9
20260905121559 21 81 6.4 14.5 0.00 0.48 0.00 96 1014.4
20260905120106 21 32 4.8 9.7 0.00 0.48 0.00 96 1014.2
20260905114605 20 56 4.8 11.3 0.00 0.51 0.00 96 1014.1
20260905113107 20 33 3.2 9.7 0.00 0.51 0.00 96 1013.7
20260905111604 20 94 4.8 11.3 0.00 0.51 0.00 96 1013.4
20260905110058 20 86 3.2 8.0 0.00 0.51 0.00 96 1013.3
20260905104605 20 47 1.6 6.4 0.00 0.61 0.00 96 1013.1
20260905103106 20 68 1.6 4.8 0.00 0.61 0.00 96 1013.2
20260905101559 20 81 0.0 3.2 0.00 0.61 0.00 96 1013.2
20260905100109 20 0 0.0 1.6 0.00 0.61 0.00 96 1013.0
20260905094607 20 0 0.0 0.0 0.00 0.61 0.00 96 1013.0
20260905093104 20 0 0.0 1.6 0.00 0.61 0.00 96 1013.0
20260905091604 20 0 0.0 1.6 0.00 0.61 0.00 96 1013.0